User: anonymous   Login
Location: ?????
(54.9266°N, 38.5527°E)
Time: 13:54:03
(UTC+00:00)
Language:

Cosmos 2221 - Orbit

View from above orbital plane
View from above orbital plane
View from above satellite
View from above satellite

Ground track
Ground track

The orbit data is extracted from the following two-line orbital elements,

1 22236U 92080A   24175.89946908  .00002053  00000-0  20047-3 0  9992
2 22236  82.5057 154.6878 0017134 120.2420 240.0498 14.91821091687633
Epoch (UTC): 23 June 2024 21:35:14
Eccentricity: 0.0017134
inclination: 82.5057°
perigee height: 580 km
apogee height: 604 km
right ascension of ascending node: 154.6878°
argument of perigee: 120.2420°
revolutions per day: 14.91821091
mean anomaly at epoch: 240.0498°
orbit number at epoch: 68763

The dashed part of the orbit path shows where the satellite is in the earth's shadow,  

DLR